Flag for Germany Weather past 2 weeks in Rietberg, North Rhine-Westphalia, Germany

64 °F

Passing clouds.

Feels Like: 64 °F
Forecast: 50 / 63 °F
Wind: 2 mph from North

Location: Paderborn / Lippstadt

Current Time: Oct 4, 2015 at 5:40:14 PM

Latest Report: Oct 4, 2015 at 4:50 PM

Visibility: N/A

Pressure: 30.01 "Hg

Humidity: 60%

Dew point: 50 °F

Location of RietbergLocation

Historic Weather in Rietberg — Graph


Rietberg temperature yesterday

Maximum temperature yesterday: 64 °F (at 2:20 PM)
Minimum temperature yesterday: 39 °F (at 12:50 AM)
Average temperature yesterday: 53 °F

Past Weeks' High & Low Weather Summary

High64 °F (Oct 3, 2:20 PM)100% (Sep 19, 6:20 PM)30.66 "Hg (Sep 19, 6:20 PM)
Low34 °F (Oct 2, 6:20 AM)39% (Oct 2, 5:20 PM)29.53 "Hg (Sep 22, 4:50 PM)
Average51 °F79%30.21 "Hg
* Reported Sep 19 4:20 PM — Oct 4 4:20 PM, Rietberg, Weather by CustomWeather, © 2015

Note: Actual official high and low records may vary slightly from our data, if they occured in-between our weather recording intervals... More about our weather records


Rietberg weather history for previous 24 hours

Time TempWeatherWind HumidityBarometerVisibility
4:20 PM
Sun, Oct 4
63 °FPassing clouds.2 mph64%30.01 "HgN/A
3:50 PM63 °FSunny.2 mph68%30.01 "Hg10 mi
3:20 PM61 °FSunny.2 mph72%30.01 "Hg10 mi
2:50 PM59 °FSunny.2 mph72%30.01 "Hg10 mi
2:20 PM59 °FSunny.2 mph72%30.01 "Hg10 mi
1:50 PM59 °FSunny.1 mph77%30.04 "Hg10 mi
1:20 PM59 °FPassing clouds.3 mph72%30.04 "HgN/A
12:50 PM59 °FSunny.2 mph72%30.04 "Hg10 mi
12:20 PM59 °FSunny.2 mph68%30.04 "Hg10 mi
11:50 AM59 °FPassing clouds.3 mph72%30.04 "HgN/A
11:20 AM59 °FPassing clouds.3 mph72%30.04 "HgN/A
10:50 AM57 °FPassing clouds.5 mph72%30.04 "HgN/A
10:20 AM55 °FSunny.6 mph82%30.04 "Hg10 mi
9:50 AM55 °FSunny.6 mph77%30.01 "Hg10 mi
9:20 AM54 °FPassing clouds.3 mph82%30.01 "HgN/A
8:50 AM52 °FSunny.2 mph82%30.01 "Hg10 mi
8:20 AM50 °FClear.2 mph82%30.01 "Hg10 mi
7:50 AM50 °FClear.2 mph82%29.98 "Hg10 mi
7:20 AM48 °FClear.1 mph87%29.98 "Hg10 mi
6:50 AM50 °FClear.2 mph82%29.98 "Hg10 mi
6:20 AM50 °FClear.3 mph82%29.98 "Hg10 mi
5:50 AM50 °FClear.2 mph82%29.98 "Hg10 mi
5:20 AM48 °FClear.1 mph87%29.98 "Hg10 mi
4:50 AM48 °FClear.2 mph87%29.98 "Hg10 mi
4:20 AM50 °FPassing clouds.3 mph88%29.98 "HgN/A
3:50 AM48 °FClear.2 mph94%29.98 "Hg10 mi
3:20 AM48 °FClear.2 mph87%29.98 "Hg10 mi
2:50 AM52 °FClear.1 mph82%29.98 "Hg10 mi
2:20 AM48 °FClear.2 mph87%29.98 "Hg10 mi
1:50 AM48 °FClear.2 mph87%29.98 "Hg10 mi
1:20 AM50 °FClear.2 mph88%29.95 "Hg10 mi
12:50 AM50 °FClear.1 mph88%29.95 "Hg10 mi
11:20 PM
Sat, Oct 3
52 °FClear.1 mph88%29.95 "Hg10 mi
10:50 PM52 °FClear.2 mph88%29.95 "Hg10 mi
10:20 PM54 °FClear.6 mph82%29.95 "Hg10 mi
9:50 PM50 °FClear.6 mph94%29.95 "Hg10 mi
9:20 PM52 °FPassing clouds.5 mph94%29.95 "HgN/A
8:50 PM54 °FClear.2 mph82%29.95 "Hg10 mi
8:20 PM54 °FPassing clouds.3 mph82%29.95 "HgN/A
7:50 PM55 °FSunny.6 mph77%29.95 "Hg10 mi
7:20 PM55 °FSunny.2 mph77%29.95 "Hg10 mi
6:50 PM57 °FSunny.2 mph72%29.92 "Hg10 mi
6:20 PM63 °FSunny.2 mph59%29.92 "Hg10 mi
5:50 PM64 °FSunny.2 mph52%29.92 "Hg10 mi
5:20 PM64 °FMild.3 mph52%29.95 "HgN/A
Weather by CustomWeather, © 2015

See weather overviewHow to use our weather pages